SCP
0 0 0 0 0 0 0 0 0 0 0 0 0 0 -0 -0 -0 0 0 0 0 0 0 0 0 0 0 0 0 0 0 0 0 0 0 0 0 0 0 0 0 0 0 0
0 0 0 0 0 0 0 0 0 0 0 0 0 0 0 0 -0 0 0 0 0 0 0 0 0 0 0 0 0 0 0 0 0 0 0 0 0 0 0 0 0 0 0 0
0 0 0 0 0 0 0 0 0 0 0 0 0 0 0 0 0 0 0 0 0 0 0 0 0 0 0 0 0 0 0 0 0 0 0 0 0 0 0 0 0 0 0 0
0 0 0 0 0 0 0 0 0 0 0 0 0 0 0 0 0 0 0 0 0 0 0 0 0 0 0 0 0 0 0 0 0 0 0 0 0 0 0 0 0 0 0 0
0 0 0 0 0 0 0 0 0 0 0 0 0 0 0 0 0 0 0 0 0 0 0 0 0 0 0 0 0 0 0 0 0 0 0 0 0 0 0 0 0 0 0 0
0 0 0 0 0 0 0 -0 0 0 0 0 0 0 0 0 0 0 0 0 0 0 0 0 0 0 0 0 0 0 0 0 0 0 0 0 0 0 0 0 0 0 0 0
0 0 0 0 0 0 0 0 0 0 0 0 0 0 0 0 0 0 0 0 0 0 0 0 0 0 0 0 0 0 0 0 0 0 0 0 0 0 0 0 0 0 0 0
0 0 0 0 0 0 0 0 0 0 0 0 0 0 0 0 0 0 0 0 0 0 0 0 0 0 0 0 0 0 0 0 0 0 0 0 0 0 0 0 0 0 0 0
0 0 0 0 0 0 0 0 0 0 0 0 0 0 0 0 0 0 0 0 0 0 0 0 0 0 0 0 0 0 0 0 0 0 0 0 0 0 0 0 0 0 0 0
0 0 0 0 0 0 0 0 0 0 0 0 0 0 0 0 0 0 0 0 0 0 0 0 0 0 0 0 0 0 0 0 0 0 0 0 0 0 0 0 0 0 0 0
0 0 0 0 0 0 0 0 0 0 0 0 0 0 0 0 0 0 0 0 0 0 0 0 0 0 0 0 0 0 0 0 0 0 0 0 0 0 0 0 0 0 0 0
0 0 0 0 0 0 0 0 0 0 0 0 0 0 0 0 0 0 0 0 0 0 0 0 0 0 0 0 0 0 0 0 0 0 0 0 0 0 0 0 0 0 0 0
0 0 0 0 0 0 0 0 0 0 0 0 0 0 0 0 0 0 0 0 0 0 0 0 0 0 0 0 0 0 0 0 0 0 0 0 0 0 0 0 0 0 0 0
0 0 0 0 0 0 0 0 0 0 0 0 0 0 0 0 0 0 0 0 0 0 0 0 0 0 0 0 0 0 0 0 0 0 0 0 0 0 0 0 0 0 0 0
0 0 0 0 0 0 0 0 0 0 0 0 0 0 0 0 0 0 0 0 0 0 0 0 0 0 0 0 0 0 0 0 0 0 0 0 0 0 0 0 0 0 0 0
0 0 0 0 0 0 0 0 0 0 0 0 0 0 0 0 0 0 0 0 0 0 0 0 0 0 0 0 0 0 0 0 0 0 0 0 0 0 0 0 0 0 0 0
0 0 0 0 0 0 0 0 0 0 0 0 0 0 0 0 0 0 0 0 0 0 0 0 0 0 0 0 0 0 0 0 0 0 0 0 0 0 0 0 0 0 0 0
0 0 0 0 0 0 0 0 0 0 0 0 0 0 0 0 0 0 0 0 0 0 0 0 0 0 0 0 0 0 0 0 0 0 0 0 0 0 0 0 0 0 0 0
0 0 0 0 0 0 0 0 0 0 0 0 0 0 0 0 0 0 0 0 0 0 0 0 0 0 0 0 0 0 0 0 0 0 0 0 0 0 0 0 0 0 0 0
0 0 0 0 0 0 0 0 0 0 0 0 0 0 0 0 0 0 0 0 0 0 0 0 0 0 0 0 0 0 0 0 0 0 0 0 0 0 0 0 0 0 0 0
0 0 0 0 0 0 0 0 0 0 0 0 0 0 0 0 0 0 0 0 0 0 0 0 0 0 0 0 0 0 0 0 0 0 0 0 0 0 0 0 0 0 0 0
0 0 0 0 0 0 0 0 0 0 0 0 0 0 0 0 0 0 0 0 0 0 0 0 0 0 0 0 0 0 0 0 0 0 0 0 0 0 0 0 0 0 0 0
0 0 0 0 0 0 0 0 0 0 0 0 0 0 0 0 0 0 0 0 0 0 0 0 0 0 0 0 0 0 0 0 0 0 0 0 0 0 0 0 0 0 0 0
0 0 0 0 0 0 0 0 0 0 0 0 0 0 0 0 0 -0 0 0 0 0 0 0 0 0 0 0 0 0 0 0 0 0 0 0 0 0 0 0 0 0 0 0
0 0 0 0 0 0 0 0 0 0 0 0 0 0 -0 -0 -0 0 0 0 0 0 0 0 0 0 0 0 0 0 0 0 0 0 0 0 0 0 0 0 0 0 0 0
0 0 0 0 0 0 0 0 0 0 0 0 0 0 0 0 0 0 0 0 0 0 0 0 0 0 0 0 0 0 0 0 0 0 0 0 0 0 0 0 0 0 0 0
0 0 0 0 0 0 0 0 0 0 0 -0 -0 0 0 0 0 0 0 0 0 0 0 0 0 0 0 0 0 0 0 0 0 0 0 0 0 0 0 0 0 0 0 0
Wind_Speed_500mb
3 11 16 17 18 17 13 30 16 51 31 16 23 16 19 25 24 34 47 54 59 59 57 56 53 49 46 46 47 46 48 48 50 51 53 53 51 51 49 47 44 40 34 28
1 6 10 10 25 27 33 39 28 44 40 11 4 16 22 29 28 44 55 63 66 64 61 60 58 56 54 52 50 50 51 52 53 55 56 55 54 52 50 47 43 37 32 25
14 6 5 8 28 30 24 35 31 33 42 10 13 18 44 45 40 47 52 67 72 72 69 67 64 60 60 58 55 56 57 58 58 58 58 57 56 54 50 46 40 36 29 22
7 5 9 19 14 31 37 35 34 39 6 16 34 58 47 42 46 48 50 55 65 72 73 72 67 65 61 60 63 63 65 63 61 61 60 59 56 53 50 43 37 32 25 20
10 9 15 40 11 12 13 29 28 34 15 37 29 18 43 57 64 65 57 57 59 63 69 72 72 69 67 68 68 69 68 66 64 63 61 59 56 52 46 40 36 29 24 18
7 17 32 9 25 27 9 46 18 34 28 27 25 8 29 69 65 67 67 63 62 62 62 71 75 73 73 77 77 76 73 69 65 63 60 57 54 49 44 40 34 28 22 22
5 16 18 13 13 47 20 8 7 22 48 49 23 43 44 36 39 55 65 70 66 61 61 64 71 75 80 82 83 77 72 68 65 62 59 55 52 48 44 39 32 27 28 26
5 2 36 16 11 41 16 8 4 3 15 37 66 55 48 43 34 30 43 57 64 63 63 64 65 75 84 86 82 76 73 70 67 64 61 58 53 49 44 37 33 33 32 31
26 18 5 40 4 24 7 6 7 5 8 12 20 31 38 42 41 34 35 42 45 50 57 58 62 74 85 85 82 79 76 72 69 65 62 59 54 49 41 42 38 37 37 35
8 8 9 32 24 24 15 8 11 9 5 5 6 10 16 19 23 27 28 30 32 38 47 55 61 70 82 80 78 77 75 74 71 69 66 60 52 51 50 44 42 40 43 39
6 4 4 11 42 19 15 15 13 9 10 8 6 3 2 4 9 13 15 15 19 27 36 44 53 64 73 73 73 75 74 73 72 69 62 61 64 56 51 45 40 46 42 42
10 22 9 10 43 24 24 20 16 14 13 11 9 8 9 9 8 6 7 8 9 16 24 31 40 52 64 68 71 74 76 77 76 75 73 67 61 59 52 44 50 48 47 46
9 28 15 16 36 32 22 17 14 14 12 9 10 11 13 13 11 9 8 8 8 8 10 18 27 41 52 60 65 67 71 74 75 73 71 68 65 59 50 55 51 51 52 50
31 20 15 20 15 19 15 12 8 7 11 13 14 14 14 14 13 12 10 9 7 7 9 15 24 35 46 55 63 68 72 73 71 70 69 66 62 58 53 52 53 52 53 51
20 20 14 29 28 24 21 11 15 19 17 14 10 9 10 12 12 12 12 12 12 12 14 20 25 30 42 53 60 64 67 68 70 69 66 63 60 58 57 56 57 55 53 54
23 28 31 34 36 37 30 24 18 15 9 5 3 6 8 10 11 12 12 12 12 9 10 14 21 27 39 49 56 61 67 69 70 69 69 68 65 63 61 61 58 57 58 58
34 26 32 34 26 15 12 8 5 3 4 6 8 9 12 14 13 13 13 14 14 15 14 15 18 25 34 45 52 58 64 70 73 74 72 69 68 67 65 61 59 60 62 62
20 20 16 14 12 12 10 5 5 7 7 7 10 13 17 19 19 19 20 21 21 19 19 19 20 25 33 41 49 57 64 69 73 75 74 74 74 72 67 65 62 63 66 70
12 9 9 11 12 10 7 7 9 10 12 14 17 20 22 24 24 25 27 28 29 28 26 27 30 31 33 36 44 55 64 70 74 76 77 77 75 74 73 74 73 71 70 73
6 5 5 6 7 7 8 10 11 12 12 14 16 19 21 24 25 26 28 29 33 35 36 38 40 40 43 43 47 51 58 67 74 78 81 83 82 82 81 81 81 77 74 74
8 8 8 8 8 6 6 7 5 3 2 4 6 9 12 15 17 19 21 20 26 31 36 39 44 46 48 49 53 55 58 65 71 77 82 84 85 86 84 83 81 78 75 70
7 6 5 6 8 9 9 8 5 2 3 8 13 16 19 22 25 27 30 31 32 33 34 36 38 41 45 51 54 58 59 62 67 72 78 82 83 84 82 81 78 74 71 67
6 3 4 6 7 6 5 4 6 10 13 16 17 20 23 26 28 30 33 33 37 40 43 45 45 46 46 47 49 53 56 60 63 66 69 71 73 75 75 73 70 68 66 65
2 2 2 3 5 6 9 13 16 19 22 25 27 29 31 30 34 36 38 43 46 48 49 50 51 54 52 49 48 49 51 52 54 56 58 62 63 63 64 64 64 62 61 61
6 4 4 6 9 13 16 20 25 29 32 35 37 40 43 45 45 45 47 48 49 51 51 50 50 51 47 46 45 44 44 44 44 44 47 51 53 55 57 57 57 57 57 58
7 8 9 11 15 19 24 27 31 37 42 44 46 48 48 48 48 50 51 52 52 52 53 51 49 48 44 42 41 39 39 39 40 42 45 47 48 49 50 51 52 53 52 53
12 13 15 18 21 24 28 31 32 34 40 49 51 50 50 46 45 45 46 46 46 46 45 44 42 40 38 35 33 33 33 34 36 39 41 43 44 45 46 47 49 49 50 51
Wind_Direction_500mb
277 227 188 186 188 189 201 227 197 246 248 216 247 266 263 272 255 226 218 216 217 218 215 213 211 209 208 206 202 197 199 196 195 194 193 195 196 195 190 188 184 186 189 188
189 327 163 188 203 201 212 230 237 251 258 148 187 238 242 239 233 231 224 223 224 224 221 218 215 212 209 207 202 199 196 193 192 191 191 189 188 188 188 188 188 188 188 191
239 135 155 269 210 201 214 218 223 236 243 156 225 244 243 236 227 234 237 233 228 228 225 223 220 217 212 207 202 198 194 191 188 188 188 187 188 189 191 191 190 191 192 199
158 86 202 257 198 212 216 230 223 248 160 210 231 245 251 257 250 245 249 244 241 237 232 227 222 218 213 208 204 199 196 194 192 191 190 190 191 193 194 192 193 197 202 216
163 192 296 274 206 147 181 261 221 237 222 242 255 266 262 249 254 260 263 270 262 252 238 231 226 221 215 209 205 203 200 197 197 196 196 196 196 196 195 197 200 206 215 232
125 218 232 326 197 152 95 267 190 208 209 217 174 221 251 259 254 260 262 259 255 251 239 231 227 222 216 212 209 206 204 201 200 201 201 201 200 199 200 202 207 215 229 241
169 223 267 230 134 150 186 245 258 232 218 206 196 226 252 262 255 261 262 259 255 251 246 238 227 219 216 214 213 209 206 204 203 203 202 202 203 202 204 207 214 226 235 239
92 169 256 158 98 178 221 138 203 88 197 223 233 241 249 264 273 260 258 259 254 247 243 238 229 220 218 216 214 209 206 205 205 206 204 203 205 206 208 212 222 231 235 240
189 212 243 182 154 200 146 153 219 217 209 226 238 252 260 265 271 276 268 261 260 252 244 237 228 221 220 217 212 208 206 207 207 207 206 206 207 208 216 221 226 232 241 242
106 225 198 199 206 208 216 215 210 212 197 198 252 265 265 273 272 272 272 267 261 248 240 233 227 223 220 218 212 210 209 208 208 208 207 207 210 223 219 224 230 240 239 241
289 360 83 229 214 214 195 164 155 135 115 100 65 40 345 323 291 286 287 284 263 249 243 239 231 223 219 214 214 211 211 211 210 209 210 223 218 217 223 226 238 241 242 244
224 188 169 201 201 187 162 148 125 104 86 82 74 63 53 49 45 28 2 334 287 257 245 242 234 225 219 214 214 215 213 212 213 214 214 212 215 220 224 233 242 242 245 247
186 134 112 148 162 159 152 138 126 103 73 59 51 37 29 33 31 30 25 11 346 307 274 251 240 229 222 219 220 220 221 220 218 217 216 218 220 223 233 238 241 244 247 252
148 129 117 138 155 172 160 127 91 68 110 95 83 67 49 35 17 7 357 341 323 290 265 251 241 232 226 224 225 224 222 222 222 220 221 223 226 230 234 240 246 251 254 257
186 193 198 176 176 180 168 155 149 131 105 94 80 42 26 16 7 359 341 320 303 291 274 258 252 242 233 230 230 229 226 224 223 224 227 230 232 234 238 242 246 250 255 260
127 131 136 143 138 128 119 116 122 123 119 101 12 348 340 336 331 330 327 325 327 318 292 279 264 251 241 238 236 233 231 230 230 230 231 232 234 238 242 245 249 254 258 261
132 122 131 131 126 118 124 123 124 188 255 289 310 325 330 327 320 306 301 302 304 305 307 301 280 258 253 248 244 243 241 238 236 236 237 239 241 245 248 250 254 258 261 261
123 125 135 155 184 184 183 210 279 290 292 302 315 321 322 318 316 309 297 296 301 306 311 297 288 276 267 258 253 251 248 246 245 245 246 247 248 248 250 252 255 260 261 259
171 176 178 188 191 204 228 267 277 279 282 288 293 298 300 299 295 291 292 294 294 291 287 288 289 284 276 270 263 257 253 251 251 251 252 253 254 254 254 254 253 257 258 258
205 197 198 210 225 244 253 260 266 270 275 280 287 291 294 294 294 292 288 288 289 289 285 282 281 279 277 273 267 261 259 257 256 257 257 258 258 258 258 257 258 259 258 259
169 173 189 200 211 219 232 240 254 279 11 29 15 4 353 346 340 336 328 321 306 301 298 294 290 289 285 281 277 272 264 261 259 259 259 259 260 260 259 258 259 260 260 262
134 145 166 185 182 167 152 146 141 114 351 340 336 334 332 329 328 327 324 323 321 319 316 312 307 302 295 288 284 281 276 271 266 264 264 265 264 264 263 263 263 261 263 261
80 94 145 146 157 170 191 238 288 299 304 304 306 308 309 311 312 314 314 316 316 315 314 312 310 307 301 294 286 282 279 274 269 266 265 264 264 264 264 263 263 263 262 263
171 184 236 280 292 298 306 300 303 305 306 308 308 306 307 306 307 307 308 309 309 308 308 307 305 303 303 299 293 285 280 276 273 270 267 265 264 264 263 263 263 262 260 257
234 236 268 291 308 309 310 313 312 313 312 310 309 306 304 304 305 305 304 305 305 305 305 304 301 299 298 294 290 286 282 278 274 271 268 267 266 265 264 263 262 262 261 260
234 256 278 293 300 304 306 309 310 310 307 303 301 299 297 298 299 300 301 302 303 303 303 302 300 297 295 292 289 287 284 279 274 271 270 269 268 267 267 266 264 263 263 263
254 264 276 284 287 293 297 299 301 305 309 308 304 299 295 295 295 296 298 299 300 300 300 298 297 296 297 296 293 288 285 283 279 277 275 275 272 271 270 269 267 266 266 267
Wind_Speed_850mb
3 11 16 17 18 17 13 30 16 51 31 16 23 16 19 25 24 34 47 54 59 59 57 56 53 49 46 46 47 46 48 48 50 51 53 53 51 51 49 47 44 40 34 28
1 6 10 10 25 27 33 39 28 44 40 11 4 16 22 29 28 44 55 63 66 64 61 60 58 56 54 52 50 50 51 52 53 55 56 55 54 52 50 47 43 37 32 25
14 6 5 8 28 30 24 35 31 33 42 10 13 18 44 45 40 47 52 67 72 72 69 67 64 60 60 58 55 56 57 58 58 58 58 57 56 54 50 46 40 36 29 22
7 5 9 19 14 31 37 35 34 39 6 16 34 58 47 42 46 48 50 55 65 72 73 72 67 65 61 60 63 63 65 63 61 61 60 59 56 53 50 43 37 32 25 20
10 9 15 40 11 12 13 29 28 34 15 37 29 18 43 57 64 65 57 57 59 63 69 72 72 69 67 68 68 69 68 66 64 63 61 59 56 52 46 40 36 29 24 18
7 17 32 9 25 27 9 46 18 34 28 27 25 8 29 69 65 67 67 63 62 62 62 71 75 73 73 77 77 76 73 69 65 63 60 57 54 49 44 40 34 28 22 22
5 16 18 13 13 47 20 8 7 22 48 49 23 43 44 36 39 55 65 70 66 61 61 64 71 75 80 82 83 77 72 68 65 62 59 55 52 48 44 39 32 27 28 26
5 2 36 16 11 41 16 8 4 3 15 37 66 55 48 43 34 30 43 57 64 63 63 64 65 75 84 86 82 76 73 70 67 64 61 58 53 49 44 37 33 33 32 31
26 18 5 40 4 24 7 6 7 5 8 12 20 31 38 42 41 34 35 42 45 50 57 58 62 74 85 85 82 79 76 72 69 65 62 59 54 49 41 42 38 37 37 35
8 8 9 32 24 24 15 8 11 9 5 5 6 10 16 19 23 27 28 30 32 38 47 55 61 70 82 80 78 77 75 74 71 69 66 60 52 51 50 44 42 40 43 39
6 4 4 11 42 19 15 15 13 9 10 8 6 3 2 4 9 13 15 15 19 27 36 44 53 64 73 73 73 75 74 73 72 69 62 61 64 56 51 45 40 46 42 42
10 22 9 10 43 24 24 20 16 14 13 11 9 8 9 9 8 6 7 8 9 16 24 31 40 52 64 68 71 74 76 77 76 75 73 67 61 59 52 44 50 48 47 46
9 28 15 16 36 32 22 17 14 14 12 9 10 11 13 13 11 9 8 8 8 8 10 18 27 41 52 60 65 67 71 74 75 73 71 68 65 59 50 55 51 51 52 50
31 20 15 20 15 19 15 12 8 7 11 13 14 14 14 14 13 12 10 9 7 7 9 15 24 35 46 55 63 68 72 73 71 70 69 66 62 58 53 52 53 52 53 51
20 20 14 29 28 24 21 11 15 19 17 14 10 9 10 12 12 12 12 12 12 12 14 20 25 30 42 53 60 64 67 68 70 69 66 63 60 58 57 56 57 55 53 54
23 28 31 34 36 37 30 24 18 15 9 5 3 6 8 10 11 12 12 12 12 9 10 14 21 27 39 49 56 61 67 69 70 69 69 68 65 63 61 61 58 57 58 58
34 26 32 34 26 15 12 8 5 3 4 6 8 9 12 14 13 13 13 14 14 15 14 15 18 25 34 45 52 58 64 70 73 74 72 69 68 67 65 61 59 60 62 62
20 20 16 14 12 12 10 5 5 7 7 7 10 13 17 19 19 19 20 21 21 19 19 19 20 25 33 41 49 57 64 69 73 75 74 74 74 72 67 65 62 63 66 70
12 9 9 11 12 10 7 7 9 10 12 14 17 20 22 24 24 25 27 28 29 28 26 27 30 31 33 36 44 55 64 70 74 76 77 77 75 74 73 74 73 71 70 73
6 5 5 6 7 7 8 10 11 12 12 14 16 19 21 24 25 26 28 29 33 35 36 38 40 40 43 43 47 51 58 67 74 78 81 83 82 82 81 81 81 77 74 74
8 8 8 8 8 6 6 7 5 3 2 4 6 9 12 15 17 19 21 20 26 31 36 39 44 46 48 49 53 55 58 65 71 77 82 84 85 86 84 83 81 78 75 70
7 6 5 6 8 9 9 8 5 2 3 8 13 16 19 22 25 27 30 31 32 33 34 36 38 41 45 51 54 58 59 62 67 72 78 82 83 84 82 81 78 74 71 67
6 3 4 6 7 6 5 4 6 10 13 16 17 20 23 26 28 30 33 33 37 40 43 45 45 46 46 47 49 53 56 60 63 66 69 71 73 75 75 73 70 68 66 65
2 2 2 3 5 6 9 13 16 19 22 25 27 29 31 30 34 36 38 43 46 48 49 50 51 54 52 49 48 49 51 52 54 56 58 62 63 63 64 64 64 62 61 61
6 4 4 6 9 13 16 20 25 29 32 35 37 40 43 45 45 45 47 48 49 51 51 50 50 51 47 46 45 44 44 44 44 44 47 51 53 55 57 57 57 57 57 58
7 8 9 11 15 19 24 27 31 37 42 44 46 48 48 48 48 50 51 52 52 52 53 51 49 48 44 42 41 39 39 39 40 42 45 47 48 49 50 51 52 53 52 53
12 13 15 18 21 24 28 31 32 34 40 49 51 50 50 46 45 45 46 46 46 46 45 44 42 40 38 35 33 33 33 34 36 39 41 43 44 45 46 47 49 49 50 51
Wind_Direction_850mb
277 227 188 186 188 189 201 227 197 246 248 216 247 266 263 272 255 226 218 216 217 218 215 213 211 209 208 206 202 197 199 196 195 194 193 195 196 195 190 188 184 186 189 188
189 327 163 188 203 201 212 230 237 251 258 148 187 238 242 239 233 231 224 223 224 224 221 218 215 212 209 207 202 199 196 193 192 191 191 189 188 188 188 188 188 188 188 191
239 135 155 269 210 201 214 218 223 236 243 156 225 244 243 236 227 234 237 233 228 228 225 223 220 217 212 207 202 198 194 191 188 188 188 187 188 189 191 191 190 191 192 199
158 86 202 257 198 212 216 230 223 248 160 210 231 245 251 257 250 245 249 244 241 237 232 227 222 218 213 208 204 199 196 194 192 191 190 190 191 193 194 192 193 197 202 216
163 192 296 274 206 147 181 261 221 237 222 242 255 266 262 249 254 260 263 270 262 252 238 231 226 221 215 209 205 203 200 197 197 196 196 196 196 196 195 197 200 206 215 232
125 218 232 326 197 152 95 267 190 208 209 217 174 221 251 259 254 260 262 259 255 251 239 231 227 222 216 212 209 206 204 201 200 201 201 201 200 199 200 202 207 215 229 241
169 223 267 230 134 150 186 245 258 232 218 206 196 226 252 262 255 261 262 259 255 251 246 238 227 219 216 214 213 209 206 204 203 203 202 202 203 202 204 207 214 226 235 239
92 169 256 158 98 178 221 138 203 88 197 223 233 241 249 264 273 260 258 259 254 247 243 238 229 220 218 216 214 209 206 205 205 206 204 203 205 206 208 212 222 231 235 240
189 212 243 182 154 200 146 153 219 217 209 226 238 252 260 265 271 276 268 261 260 252 244 237 228 221 220 217 212 208 206 207 207 207 206 206 207 208 216 221 226 232 241 242
106 225 198 199 206 208 216 215 210 212 197 198 252 265 265 273 272 272 272 267 261 248 240 233 227 223 220 218 212 210 209 208 208 208 207 207 210 223 219 224 230 240 239 241
289 360 83 229 214 214 195 164 155 135 115 100 65 40 345 323 291 286 287 284 263 249 243 239 231 223 219 214 214 211 211 211 210 209 210 223 218 217 223 226 238 241 242 244
224 188 169 201 201 187 162 148 125 104 86 82 74 63 53 49 45 28 2 334 287 257 245 242 234 225 219 214 214 215 213 212 213 214 214 212 215 220 224 233 242 242 245 247
186 134 112 148 162 159 152 138 126 103 73 59 51 37 29 33 31 30 25 11 346 307 274 251 240 229 222 219 220 220 221 220 218 217 216 218 220 223 233 238 241 244 247 252
148 129 117 138 155 172 160 127 91 68 110 95 83 67 49 35 17 7 357 341 323 290 265 251 241 232 226 224 225 224 222 222 222 220 221 223 226 230 234 240 246 251 254 257
186 193 198 176 176 180 168 155 149 131 105 94 80 42 26 16 7 359 341 320 303 291 274 258 252 242 233 230 230 229 226 224 223 224 227 230 232 234 238 242 246 250 255 260
127 131 136 143 138 128 119 116 122 123 119 101 12 348 340 336 331 330 327 325 327 318 292 279 264 251 241 238 236 233 231 230 230 230 231 232 234 238 242 245 249 254 258 261
132 122 131 131 126 118 124 123 124 188 255 289 310 325 330 327 320 306 301 302 304 305 307 301 280 258 253 248 244 243 241 238 236 236 237 239 241 245 248 250 254 258 261 261
123 125 135 155 184 184 183 210 279 290 292 302 315 321 322 318 316 309 297 296 301 306 311 297 288 276 267 258 253 251 248 246 245 245 246 247 248 248 250 252 255 260 261 259
171 176 178 188 191 204 228 267 277 279 282 288 293 298 300 299 295 291 292 294 294 291 287 288 289 284 276 270 263 257 253 251 251 251 252 253 254 254 254 254 253 257 258 258
205 197 198 210 225 244 253 260 266 270 275 280 287 291 294 294 294 292 288 288 289 289 285 282 281 279 277 273 267 261 259 257 256 257 257 258 258 258 258 257 258 259 258 259
169 173 189 200 211 219 232 240 254 279 11 29 15 4 353 346 340 336 328 321 306 301 298 294 290 289 285 281 277 272 264 261 259 259 259 259 260 260 259 258 259 260 260 262
134 145 166 185 182 167 152 146 141 114 351 340 336 334 332 329 328 327 324 323 321 319 316 312 307 302 295 288 284 281 276 271 266 264 264 265 264 264 263 263 263 261 263 261
80 94 145 146 157 170 191 238 288 299 304 304 306 308 309 311 312 314 314 316 316 315 314 312 310 307 301 294 286 282 279 274 269 266 265 264 264 264 264 263 263 263 262 263
171 184 236 280 292 298 306 300 303 305 306 308 308 306 307 306 307 307 308 309 309 308 308 307 305 303 303 299 293 285 280 276 273 270 267 265 264 264 263 263 263 262 260 257
234 236 268 291 308 309 310 313 312 313 312 310 309 306 304 304 305 305 304 305 305 305 305 304 301 299 298 294 290 286 282 278 274 271 268 267 266 265 264 263 262 262 261 260
234 256 278 293 300 304 306 309 310 310 307 303 301 299 297 298 299 300 301 302 303 303 303 302 300 297 295 292 289 287 284 279 274 271 270 269 268 267 267 266 264 263 263 263
254 264 276 284 287 293 297 299 301 305 309 308 304 299 295 295 295 296 298 299 300 300 300 298 297 296 297 296 293 288 285 283 279 277 275 275 272 271 270 269 267 266 266 267